sat.trackr.live / text

‹ back to catalog

ES'HAIL 1

NORAD 39233 · 2013-044A

PAYLOAD ACTIVE UNKNOWN

§ Identity

Operator
Country
AB
Launch date
2013-08-29
Launch site
FRGUI
Launch vehicle
Mass (kg)
RCS (m²)
12.51

Purposes: comms

External: N2YO · Heavens-Above · Gunter

§ Orbital elements

Epoch: 2026-09-13T01:59:57.977952Z

Period
1,436.11 min
Inclination
0.0640°
Eccentricity
0.0002275
Mean motion
1.00270981 rev/d
Perigee alt
35,777.2 km
Apogee alt
35,796.4 km
Semi-major
42,165.0 km
B*
0.0000e+0
RAAN
345.5376°
Arg perigee
179.8362°
Mean anomaly
242.1774°
Rev number
4,750

§ Raw data

ES'HAIL 11 39233U 13044A   26256.08330993  .00000131  00000+0  00000+0 0  99912 39233   0.0640 345.5376 0002275 179.8362 242.1774  1.00270981 47508

JSON: /api/v1/satellites/39233 · /tle

For live sub-satellite position, see the globe view (requires WebGL).

§ Visibility from observer

Set your observer location to see the next 7 days of passes ≥ 10°. The values pass through the URL so the page stays shareable.

No JS? Fill the form by hand. The geolocation button needs JavaScript.